Station VAKF1 - 8723214 - Virginia Key, FL Image indicating link to RSS feed of recent meteorological observations for station VAKF1


Conditions at VAKF1 as of
(8:30 pm EDT on 05/27/2024)
0030 GMT on 05/28/2024:
     

Click on the graph icon in the table below to see a time series plot of the last five days of that observation.

5-day plot - Wind Direction Wind Direction (WDIR): S ( 170 deg true )
5-day plot - Wind Speed Wind Speed (WSPD): 6.0 kts
5-day plot - Wind Gust Wind Gust (GST): 7.0 kts
5-day plot - Atmospheric Pressure Atmospheric Pressure (PRES):29.99 in
5-day plot - Air Temperature Air Temperature (ATMP): 85.6 °F
5-day plot - Water Temperature Water Temperature (WTMP): 88.5 °F
5-day plot - Wind Speed at 10 Meters Wind Speed at 10 meters (WSPD10M): 5.8 kts
5-day plot - Wind Speed at 20 Meters Wind Speed at 20 meters (WSPD20M): 7.8 kts
5-day plot -  Wind Speed, Wind Gust and Atmospheric Pressure Combined plot of Wind Speed, Gust, and Air Pressure
NOS Water Level Observation Network Water Level
Previous observations
TIME
(EDT)
5-day plot - Wind Direction
WDIR
 
5-day plot - Wind Speed
WSPD
kts
5-day plot - Wind Gust
GST
kts
5-day plot - Wave Height
WVHT
ft
5-day plot - Dominant Wave Period
DPD
sec
5-day plot - Average Wave Period
APD
sec
5-day plot - Mean Wave Direction
MWD
 
5-day plot - Atmospheric Pressure
PRES
in
5-day plot - Pressure Tendency
PTDY
in
5-day plot - Air Temperature
ATMP
°F
5-day plot - Water Temperature
WTMP
°F
5-day plot - Dew Point
DEWP
°F
5-day plot - Salinity
SAL
psu
5-day plot - Visibility
VIS
nmi
5-day plot - Tide (above MLLW)
TIDE
ft
2024-05-27 08:24 pmSSE 6.0 8.0----29.99- 85.6 88.5----
2024-05-27 08:18 pm SE 6.0 8.0----29.98- 85.6 88.5----
2024-05-27 08:12 pm SE 6.0 7.0----29.98- 85.6 88.5----
2024-05-27 08:06 pm SE 7.0 8.0----29.98- 85.8 88.5----
2024-05-27 08:00 pm SE 6.0 7.0----29.99+0.00 85.8 88.5----
2024-05-27 07:54 pm SE 6.0 8.9----29.99- 85.8 88.5----
2024-05-27 07:48 pm SE 7.0 8.9----29.99-- 88.5----
2024-05-27 07:42 pmSSE 7.0 8.0----29.99-- 88.5----
2024-05-27 07:36 pm SE 6.0 8.9----29.99-- 88.5----
2024-05-27 07:30 pmSSE 6.0 8.9----29.98- 86.0 88.5----
2024-05-27 07:24 pm SE 7.0 8.9----29.98- 85.8 88.5----
2024-05-27 07:18 pmSSE 7.0 8.9----29.98- 85.8 88.5----
2024-05-27 07:12 pm SE 6.0 8.9----29.98- 85.8 88.5----
2024-05-27 07:06 pm SE 7.0 9.9----29.98- 85.8 88.5----
2024-05-27 07:00 pm SE 8.0 9.9----29.98-0.01 86.0 88.5----
2024-05-27 06:54 pm SE 8.0 9.9----29.98- 86.0 88.7----
2024-05-27 06:48 pm SE 8.0 9.9----29.98- 85.8 88.7----
2024-05-27 06:42 pmSSE 8.0 9.9----29.98- 85.8 88.7----
2024-05-27 06:36 pm SE 7.0 9.9----29.98- 86.2 88.7----
2024-05-27 06:30 pm SE 8.0 9.9----29.98- 86.2 88.7----
2024-05-27 06:24 pm SE 8.9 9.9----29.97- 86.0 88.7----
2024-05-27 06:18 pm SE 8.0 9.9----29.98- 86.2 88.7----
2024-05-27 06:12 pm SE 8.0 9.9----29.97- 86.2 88.7----
2024-05-27 06:06 pmESE 8.0 9.9----29.98- 86.4 88.7----
2024-05-27 06:00 pm--------- 86.4 88.7----
2024-05-27 05:54 pm--------- 86.2 88.7----
2024-05-27 05:48 pmSSE 9.9 12.0----29.98- 86.0 88.9----
2024-05-27 05:42 pm SE 9.9 12.0----29.98- 86.4 88.9----
2024-05-27 05:36 pm SE 7.0 11.1----29.98- 86.2 88.9----
2024-05-27 05:30 pm SE 8.0 9.9----29.98-- 88.9----
2024-05-27 05:24 pm SE 8.0 9.9----29.98-- 88.9----
2024-05-27 05:18 pm SE 7.0 8.9----29.98- 86.2 88.9----
2024-05-27 05:12 pm SE 6.0 8.0----29.98- 86.2 88.9----
2024-05-27 05:06 pmESE 6.0 8.9----29.98- 86.0 88.9----
2024-05-27 05:00 pm SE 7.0 8.9----29.98-0.04 85.6 88.9----
2024-05-27 04:54 pmESE 7.0 9.9----29.98- 85.8 88.9----
2024-05-27 04:48 pmSSE 7.0 8.9----29.98- 85.8 88.9----
2024-05-27 04:42 pm SE 8.0 8.9----29.99- 85.8 88.9----
2024-05-27 04:36 pm SE 8.0 11.1----29.98- 85.6 88.9----
2024-05-27 04:30 pm-------29.98- 85.6 88.9----
2024-05-27 04:24 pm-------29.99- 85.8 88.9----
2024-05-27 04:18 pmESE 7.0 9.9----29.99- 86.2 88.7----
2024-05-27 04:12 pm SE 8.0 11.1----29.99- 86.4 88.7----
2024-05-27 04:06 pm SE 7.0 8.9----29.99- 86.2 88.7----
2024-05-27 04:00 pm SE 8.9 9.9----30.00-0.04 86.0 88.5----
2024-05-27 03:54 pm SE 7.0 9.9----30.00- 86.0 88.5----
2024-05-27 03:48 pm SE 8.0 11.1------ 86.0 88.5----
2024-05-27 03:42 pm SE 8.0 8.9------ 85.8 88.5----
2024-05-27 03:36 pm SE 6.0 11.1------ 86.0 88.5----
2024-05-27 03:30 pm SE 7.0 9.9----30.00- 85.6 88.5----
2024-05-27 03:24 pmESE 7.0 12.0----30.00- 85.8 88.5----
2024-05-27 03:18 pm SE 9.9 12.0----30.01- 85.5 88.3----
2024-05-27 03:12 pm SE 8.9 13.0----30.01- 85.5 88.3----
2024-05-27 03:06 pm SE 8.0 13.0----30.01- 85.6 88.3----
2024-05-27 03:00 pm SE 9.9 12.0----30.01-0.02 85.6 88.2----
2024-05-27 02:54 pm SE 9.9 13.0----30.01- 85.5 88.2----
2024-05-27 02:48 pm SE 8.0 13.0----30.01- 85.8 88.0----
2024-05-27 02:42 pmESE 9.9 13.0----30.01- 85.5 88.2----
2024-05-27 02:36 pmESE 8.9 12.0----30.01- 85.6 88.2----
2024-05-27 02:30 pm SE 9.9 12.0----30.01- 85.6 88.2----
2024-05-27 02:24 pm SE 11.1 12.0----30.01- 85.6 88.2----
2024-05-27 02:18 pm SE 8.9 12.0----30.01- 85.6 88.0----
2024-05-27 02:12 pm SE 9.9 12.0----30.02- 85.6 88.0----
2024-05-27 02:06 pm SE 8.9 12.0----30.02- 86.0 88.0----
2024-05-27 02:00 pm SE 8.0 12.0----30.02+0.00 86.0 88.0----
2024-05-27 01:54 pmESE 8.0 11.1----30.02- 85.6 88.0----
2024-05-27 01:48 pm SE 8.0 9.9----30.03-- 88.0----
2024-05-27 01:42 pm SE 7.0 8.9----30.03-- 88.0----
2024-05-27 01:36 pm SE 8.0 11.1----30.03-- 88.2----
2024-05-27 01:30 pm SE 8.9 12.0----30.03- 85.3 88.2----
2024-05-27 01:24 pm SE 8.0 9.9----30.03- 85.6 88.2----
2024-05-27 01:18 pm SE 8.0 11.1----30.03- 84.9 88.2----
2024-05-27 01:12 pmSSE 8.0 9.9----30.03- 85.1 88.2----
2024-05-27 01:06 pmESE 7.0 8.9----30.03- 85.1 87.8----
2024-05-27 01:00 pmESE 7.0 9.9----30.03+0.02 85.1 87.8----
2024-05-27 12:54 pm SE 8.0 9.9----30.03- 85.1 87.8----
2024-05-27 12:48 pmESE 8.9 11.1----30.03- 85.1 87.8----
2024-05-27 12:42 pm S 6.0 7.0----30.03- 85.5 87.8----
2024-05-27 12:36 pmSSE 6.0 8.0----30.03- 85.3 87.8----
2024-05-27 12:30 pmSSE 5.1 8.0----30.03- 85.3 87.8----
2024-05-27 12:24 pm S 7.0 8.0----30.03- 85.3 87.8----
2024-05-27 12:18 pmSSW 6.0 8.9----30.03- 85.1 87.8----
2024-05-27 12:12 pmSSW 7.0 9.9----30.03- 85.1 87.6----
2024-05-27 12:06 pmSSW 5.1 7.0----30.03- 85.1 87.6----
2024-05-27 12:00 pmSSW 5.1 6.0----30.03+0.03 84.9 87.6----
2024-05-27 11:54 amSSW 5.1 5.1----30.03- 85.1 87.6----
2024-05-27 11:48 amSSW 4.1 6.0----30.03- 84.9 87.6----
2024-05-27 11:42 am SW 4.1 6.0----30.03- 85.1 87.6----
2024-05-27 11:36 amSSW 2.9 7.0----30.03- 85.1 87.6----
2024-05-27 11:30 am S 5.1 6.0----30.03- 85.1 87.6----
2024-05-27 11:24 amSSW 5.1 8.0----30.03- 84.9 87.4----
2024-05-27 11:18 amSSW 7.0 8.0----30.03- 84.7 87.4----
2024-05-27 11:12 amSSW 7.0 8.0----30.03- 84.7 87.4----
2024-05-27 11:06 amSSW 7.0 8.0----30.02- 84.7 87.4----
2024-05-27 11:00 amSSW 7.0 8.9----30.02+0.04 84.7 87.4----
2024-05-27 10:54 am SW 5.1 7.0----30.02- 84.4 87.4----
2024-05-27 10:48 amSSW 5.1 8.0----30.02-- 87.4----
2024-05-27 10:42 amSSW 8.0 8.9----30.02-- 87.3----
2024-05-27 10:36 amSSW 6.0 7.0----30.01-- 87.3----
2024-05-27 10:30 am S 7.0 8.0----30.01- 84.6 87.3----
2024-05-27 10:24 amSSW 5.1 8.0----30.01- 84.6 87.3----
2024-05-27 10:18 amSSW 5.1 7.0----30.01- 84.7 87.3----
2024-05-27 10:12 am S 6.0 8.0----30.01- 84.7 87.3----
2024-05-27 10:06 am S 5.1 7.0----30.01- 84.9 87.3----
2024-05-27 10:00 am S 7.0 8.0----30.01+0.04 84.6 87.3----
2024-05-27 09:54 am S 6.0 8.0----30.01- 84.9 87.3----
2024-05-27 09:48 am S 6.0 8.0----30.01- 84.2 87.3----
2024-05-27 09:42 amSSW 6.0 8.0----30.01- 84.4 87.1----
2024-05-27 09:36 amSSW 5.1 7.0----30.01- 84.2 87.1----
2024-05-27 09:30 am SW 4.1 7.0----30.01- 84.4 87.1----
2024-05-27 09:24 am SW 2.9 6.0----30.01- 84.2 87.1----
2024-05-27 09:18 amWSW 2.9 4.1----30.01- 83.8 87.1----
2024-05-27 09:12 am SW 4.1 5.1----30.01- 83.5 87.1----
2024-05-27 09:06 amWSW 4.1 5.1----30.00- 83.8 87.1----
2024-05-27 09:00 amWSW 2.9 5.1----30.00+0.05 83.7 87.1----
2024-05-27 08:54 amWSW 2.9 5.1----30.00- 83.8 87.1----
2024-05-27 08:48 amWSW 2.9 5.1----30.00- 83.7 87.1----
2024-05-27 08:42 amWSW 4.1 5.1----29.99- 84.0 87.1----
2024-05-27 08:36 am W 1.9 5.1----29.99- 84.0 87.1----
2024-05-27 08:30 am W 2.9 5.1----29.99- 84.2 87.1----
2024-05-27 08:24 am W 2.9 4.1----29.98- 84.4 87.1----
2024-05-27 08:18 amWSW 2.9 4.1----29.98- 84.0 87.1----
2024-05-27 08:12 am W 1.9 4.1----29.98- 84.2 87.1----
2024-05-27 08:06 am SW 2.9 4.1----29.98- 83.3 87.1----
2024-05-27 08:00 am SW 1.9 2.9----29.98+0.03 83.8 87.1----
2024-05-27 07:54 am W 1.0 2.9----29.98- 83.8 87.1----
2024-05-27 07:48 am W 1.9 4.1----29.98- 83.7 87.1----
2024-05-27 07:42 am W 1.0 4.1----29.98- 83.8 87.1----
2024-05-27 07:36 am W 4.1 5.1----29.98- 83.3 87.1----
2024-05-27 07:30 am W 2.9 5.1----29.98- 83.7 87.1----
2024-05-27 07:24 am W 2.9 4.1----29.98- 83.7 87.3----
2024-05-27 07:18 am W 1.9 5.1----29.98- 83.7 87.3----
2024-05-27 07:12 am W 4.1 6.0----29.98- 83.3 87.3----
2024-05-27 07:06 am W 1.9 5.1----29.97- 83.1 87.3----
2024-05-27 07:00 am S 4.1 6.0----29.97+0.02 83.3 87.3----
2024-05-27 06:54 amSSE 5.1 6.0----29.97- 83.3 87.3----
2024-05-27 06:48 amSSE 5.1 6.0----29.97- 83.1 87.3----
2024-05-27 06:42 amSSE 4.1 5.1----29.97- 83.1 87.3----
2024-05-27 06:36 amSSE 5.1 6.0----29.96- 83.1 87.3----
2024-05-27 06:30 amSSE 4.1 5.1----29.96- 83.3 87.3----
2024-05-27 06:24 amSSE 4.1 5.1----29.96- 83.5 87.3----
2024-05-27 06:18 am S 4.1 5.1----29.96- 83.5 87.3----
2024-05-27 06:12 am S 4.1 5.1----29.96- 83.5 87.3----
2024-05-27 06:06 am S 4.1 5.1----29.96- 83.5 87.3----
2024-05-27 06:00 amSSE 4.1 5.1----29.95+0.00 83.7 87.3----
2024-05-27 05:54 amSSE 4.1 5.1----29.95- 83.5 87.3----
2024-05-27 05:48 am S 4.1 5.1----29.95- 83.5 87.3----
2024-05-27 05:42 am S 4.1 5.1----29.95- 83.5 87.3----
2024-05-27 05:36 am S 4.1 5.1----29.95- 83.5 87.3----
2024-05-27 05:30 am S 4.1 4.1----29.95- 83.3 87.3----
2024-05-27 05:24 am S 4.1 4.1----29.95- 83.5 87.3----
2024-05-27 05:18 am S 2.9 4.1----29.95- 83.7 87.3----
2024-05-27 05:12 amSSE 2.9 4.1----29.95- 83.8 87.4----
2024-05-27 05:06 am S 1.9 2.9----29.95- 83.5 87.4----
2024-05-27 05:00 am S 1.9 2.9----29.95-0.02 83.5 87.4----
2024-05-27 04:54 am S 1.9 1.9----29.95- 83.1 87.4----
2024-05-27 04:48 amSSE 1.0 1.9----29.95- 83.5 87.4----
2024-05-27 04:42 amSSE 1.0 2.9----29.94- 83.1 87.4----
2024-05-27 04:36 am SE 1.9 2.9----29.94- 83.1 87.4----
2024-05-27 04:30 am SE 1.9 2.9----29.94- 83.1 87.4----
2024-05-27 04:24 am SE 1.9 1.9----29.94- 83.1 87.6----
2024-05-27 04:18 am- 0.0 0.0----29.94- 82.6 87.6----
2024-05-27 04:12 am- 0.0 1.0----29.94- 82.6 87.6----
2024-05-27 04:06 am- 0.0 1.0----29.95- 82.8 87.6----
2024-05-27 04:00 am- 0.0 1.9----29.95-0.04 83.5 87.6----
2024-05-27 03:54 am S 1.0 1.9----29.94- 83.5 87.6----
2024-05-27 03:48 am SW 1.0 2.9----29.94- 83.5 87.6----
2024-05-27 03:42 amSSW 1.9 2.9----29.94- 83.7 87.6----
2024-05-27 03:36 amSSW 1.0 1.9----29.94- 83.5 87.6----
2024-05-27 03:30 am- 0.0 1.9----29.94- 83.1 87.6----
2024-05-27 03:24 am W 1.0 1.9----29.94- 83.1 87.6----
2024-05-27 03:18 am SW 1.0 2.9----29.95- 83.7 87.6----
2024-05-27 03:12 am SW 1.9 2.9----29.95- 83.5 87.6----
2024-05-27 03:06 am W 1.0 1.9----29.95- 83.1 87.6----
2024-05-27 03:00 am W 1.9 2.9----29.95-0.05 83.3 87.8----
2024-05-27 02:54 am W 1.9 4.1----29.95- 83.7 87.8----
2024-05-27 02:48 amWSW 1.9 2.9----29.96- 83.3 87.8----
2024-05-27 02:42 am W 1.9 4.1----29.96- 83.3 87.8----
2024-05-27 02:36 am W 1.9 2.9----29.96- 83.3 87.8----
2024-05-27 02:30 am W 1.9 2.9----29.96- 83.5 87.8----
2024-05-27 02:24 am W 1.9 2.9----29.96- 83.5 87.8----
2024-05-27 02:18 am W 1.9 2.9----29.96- 83.7 87.8----
2024-05-27 02:12 am W 2.9 2.9----29.97- 83.5 87.6----
2024-05-27 02:06 am W 1.0 4.1----29.97- 83.7 87.6----
2024-05-27 02:00 am W 2.9 4.1----29.97-0.02 83.7 87.6----
2024-05-27 01:54 am W 1.9 2.9----29.97- 83.7 87.6----
2024-05-27 01:48 am W 1.9 4.1----29.97- 83.8 87.6----
2024-05-27 01:42 am W 2.9 5.1----29.98- 83.8 87.6----
2024-05-27 01:36 amWSW 4.1 5.1----29.98- 83.8 87.6----
2024-05-27 01:30 am W 4.1 6.0----29.98- 83.8 87.8----
2024-05-27 01:24 amWSW 5.1 6.0----29.98- 84.2 87.8----
2024-05-27 01:18 am W 2.9 6.0----29.98- 84.4 87.8----
2024-05-27 01:12 am W 2.9 5.1----29.98- 84.0 87.8----
2024-05-27 01:06 am W 2.9 6.0----29.98- 84.4 87.8----
2024-05-27 01:00 amWSW 5.1 6.0----29.99+0.02 84.6 87.8----
2024-05-27 12:54 amWSW 5.1 7.0----29.99- 84.4 87.8----
2024-05-27 12:48 amWSW 5.1 6.0----29.99- 84.6 87.8----
2024-05-27 12:42 am SW 5.1 6.0----29.99- 84.6 87.8----
2024-05-27 12:36 am SW 5.1 6.0----29.99- 84.9 87.8----
2024-05-27 12:30 am SW 5.1 7.0----29.99- 84.7 87.8----
2024-05-27 12:24 am SW 6.0 8.0----30.00- 84.7 87.8----
2024-05-27 12:18 am SW 6.0 8.0----30.00- 84.7 87.8----
2024-05-27 12:12 amSSW 7.0 8.0----30.00- 84.9 87.6----
2024-05-27 12:06 am SW 7.0 8.9----30.00- 84.9 87.6----
2024-05-27 12:00 amSSW 8.0 8.9----30.00+0.04 85.1 87.6----
2024-05-26 11:54 pmSSW 8.9 9.9----30.00- 84.9 87.6----
2024-05-26 11:48 pm-------30.00-- 87.6----
2024-05-26 11:42 pm-------30.00-- 87.6----
2024-05-26 11:36 pm-------30.00-- 87.6----
2024-05-26 11:30 pm SW 8.9 9.9----30.00- 85.3 87.6----
2024-05-26 11:24 pm SW 8.9 11.1----30.00- 85.3 87.6----
2024-05-26 11:18 pmSSW 8.9 11.1----30.00- 85.5 87.6----
2024-05-26 11:12 pm SW 9.9 12.0----30.00- 85.5 87.6----
2024-05-26 11:06 pm SW 9.9 12.0----30.00- 85.5 87.6----
2024-05-26 11:00 pm SW 9.9 12.0----29.99+0.05 85.6 87.6----
2024-05-26 10:54 pm SW 8.9 12.0----29.99- 85.6 87.6----
2024-05-26 10:48 pm SW 9.9 12.0----29.99- 85.6 87.6----
2024-05-26 10:42 pmSSW 12.0 12.0----29.99- 86.0 87.6----
2024-05-26 10:36 pm SW 11.1 12.0----29.99- 86.0 87.6----
2024-05-26 10:30 pm---------- 87.6----
2024-05-26 10:24 pm---------- 87.6----
2024-05-26 10:18 pm S 8.9 11.1----29.98-------
2024-05-26 10:12 pm S 8.9 11.1----29.98-------
2024-05-26 10:06 pm S 8.9 11.1----29.98-------
2024-05-26 10:00 pm S 9.9 12.0----29.97+0.04- 87.8----
2024-05-26 09:54 pm S 8.9 9.9----29.97-- 87.8----
2024-05-26 09:48 pm S 8.9 11.1----29.97- 85.6 87.8----
2024-05-26 09:42 pm S 8.0 12.0----29.97- 85.8 87.8----
2024-05-26 09:36 pm S 8.9 12.0----29.96- 85.5 87.8----
2024-05-26 09:30 pm S 8.0 9.9----29.96- 85.5 87.8----
2024-05-26 09:24 pm S 9.9 11.1----29.96- 85.5 88.0----
2024-05-26 09:18 pm S 9.9 11.1----29.96-- 88.0----
2024-05-26 09:12 pm S 11.1 13.0----29.96-- 88.0----
2024-05-26 09:06 pm S 9.9 12.0----29.96-- 88.0----
2024-05-26 09:00 pmSSE 8.9 11.1----29.96+0.04- 88.0----
2024-05-26 08:54 pm S 8.9 12.0----29.96-- 88.2----